| time (UTC) | temp C | wind direction | speed KPH | gust KPH | rain 1hr cm | rain 24hr cm | rain mn cm | humidity % | barometer mb |
| 20260906201250 | 22 | 305 | 8.0 | 11.3 | 0.00 | 0.25 | 0.25 | 46 | 1013.5 |
| 20260906200746 | 22 | 253 | 12.9 | 14.5 | 0.00 | 0.25 | 0.25 | 45 | 1013.6 |
| 20260906200242 | 22 | 236 | 6.4 | 11.3 | 0.00 | 0.25 | 0.25 | 45 | 1013.6 |
| 20260906195737 | 22 | 322 | 3.2 | 6.4 | 0.00 | 0.25 | 0.25 | 46 | 1013.5 |
| 20260906195233 | 22 | 351 | 6.4 | 9.7 | 0.00 | 0.25 | 0.25 | 46 | 1013.5 |
| 20260906194729 | 22 | 52 | 6.4 | 9.7 | 0.00 | 0.25 | 0.25 | 45 | 1013.5 |
| 20260906194225 | 22 | 37 | 6.4 | 9.7 | 0.00 | 0.25 | 0.25 | 45 | 1013.6 |
| 20260906193720 | 22 | 267 | 3.2 | 3.2 | 0.00 | 0.25 | 0.25 | 45 | 1013.6 |
| 20260906193214 | 22 | 211 | 4.8 | 4.8 | 0.00 | 0.25 | 0.25 | 46 | 1013.7 |
| 20260906192710 | 22 | 309 | 4.8 | 6.4 | 0.00 | 0.25 | 0.25 | 46 | 1013.6 |
| 20260906192209 | 23 | 75 | 3.2 | 4.8 | 0.00 | 0.25 | 0.25 | 45 | 1013.6 |
| 20260906191704 | 22 | 273 | 1.6 | 3.2 | 0.00 | 0.25 | 0.25 | 46 | 1013.8 |
| 20260906191204 | 22 | 353 | 3.2 | 6.4 | 0.00 | 0.25 | 0.25 | 45 | 1013.6 |
| 20260906190658 | 22 | 237 | 1.6 | 1.6 | 0.00 | 0.25 | 0.25 | 45 | 1013.7 |
| 20260906190153 | 22 | 300 | 9.7 | 12.9 | 0.00 | 0.25 | 0.25 | 44 | 1013.5 |
| 20260906185652 | 22 | 321 | 6.4 | 11.3 | 0.00 | 0.25 | 0.25 | 46 | 1013.7 |
| 20260906185151 | 21 | 41 | 1.6 | 3.2 | 0.00 | 0.25 | 0.25 | 48 | 1013.8 |
| 20260906184646 | 21 | 46 | 4.8 | 6.4 | 0.00 | 0.25 | 0.25 | 45 | 1013.7 |
| 20260906184141 | 21 | 132 | 11.3 | 16.1 | 0.00 | 0.25 | 0.25 | 49 | 1014.0 |
| 20260906183637 | 21 | 7 | 4.8 | 4.8 | 0.00 | 0.25 | 0.25 | 47 | 1013.9 |
| 20260906183133 | 21 | 348 | 6.4 | 6.4 | 0.00 | 0.25 | 0.25 | 46 | 1013.9 |
| 20260906182627 | 21 | 1 | 8.0 | 9.7 | 0.00 | 0.25 | 0.25 | 46 | 1014.0 |
| 20260906182124 | 21 | 18 | 8.0 | 16.1 | 0.00 | 0.25 | 0.25 | 46 | 1014.0 |
| 20260906181624 | 21 | 307 | 3.2 | 3.2 | 0.00 | 0.25 | 0.25 | 48 | 1013.9 |
| 20260906181119 | 21 | 180 | 4.8 | 6.4 | 0.00 | 0.25 | 0.25 | 48 | 1013.9 |
| 20260906180615 | 21 | 25 | 1.6 | 3.2 | 0.00 | 0.25 | 0.25 | 49 | 1014.2 |
| 20260906180109 | 21 | 357 | 3.2 | 6.4 | 0.00 | 0.25 | 0.25 | 47 | 1014.1 |
| 20260906175608 | 21 | 273 | 6.4 | 6.4 | 0.00 | 0.25 | 0.25 | 48 | 1014.1 |
| 20260906175103 | 21 | 38 | 6.4 | 6.4 | 0.00 | 0.25 | 0.25 | 48 | 1014.2 |
| 20260906174601 | 21 | 294 | 9.7 | 16.1 | 0.00 | 0.25 | 0.25 | 50 | 1014.1 |
| 20260906174056 | 21 | 282 | 3.2 | 6.4 | 0.00 | 0.25 | 0.25 | 50 | 1013.8 |
| 20260906173550 | 20 | 65 | 6.4 | 6.4 | 0.00 | 0.25 | 0.25 | 48 | 1014.1 |
| 20260906173046 | 21 | 49 | 3.2 | 3.2 | 0.00 | 0.25 | 0.25 | 53 | 1014.2 |
| 20260906172541 | 21 | 278 | 3.2 | 4.8 | 0.00 | 0.25 | 0.25 | 51 | 1014.2 |
| 20260906172036 | 21 | 71 | 3.2 | 3.2 | 0.00 | 0.25 | 0.25 | 51 | 1014.3 |
| 20260906171531 | 21 | 256 | 4.8 | 4.8 | 0.00 | 0.25 | 0.25 | 53 | 1014.6 |
| 20260906171027 | 20 | 5 | 8.0 | 9.7 | 0.00 | 0.25 | 0.25 | 53 | 1014.4 |
| 20260906170522 | 20 | 84 | 9.7 | 11.3 | 0.00 | 0.25 | 0.25 | 52 | 1014.4 |
| 20260906170021 | 21 | 292 | 6.4 | 9.7 | 0.00 | 0.25 | 0.25 | 53 | 1014.5 |
| 20260906165518 | 21 | 130 | 4.8 | 6.4 | 0.00 | 0.25 | 0.25 | 56 | 1014.3 |
| 20260906165013 | 20 | 276 | 3.2 | 4.8 | 0.00 | 0.25 | 0.25 | 57 | 1014.4 |
| 20260906164512 | 20 | 273 | 6.4 | 12.9 | 0.00 | 0.25 | 0.25 | 56 | 1014.5 |
| 20260906164009 | 20 | 324 | 3.2 | 3.2 | 0.00 | 0.25 | 0.25 | 57 | 1014.9 |
| 20260906163509 | 20 | 178 | 4.8 | 6.4 | 0.00 | 0.25 | 0.25 | 59 | 1014.7 |
| 20260906163004 | 20 | 322 | 1.6 | 3.2 | 0.00 | 0.25 | 0.25 | 57 | 1014.9 |
| 20260906162501 | 20 | 200 | 3.2 | 3.2 | 0.00 | 0.25 | 0.25 | 56 | 1015.0 |
| 20260906161956 | 20 | 284 | 0.0 | 1.6 | 0.00 | 0.25 | 0.25 | 57 | 1015.0 |
| 20260906161456 | 20 | 309 | 4.8 | 6.4 | 0.00 | 0.25 | 0.25 | 55 | 1014.9 |
| 20260906160954 | 20 | 344 | 4.8 | 6.4 | 0.00 | 0.25 | 0.25 | 54 | 1015.0 |
| 20260906160448 | 20 | 277 | 6.4 | 11.3 | 0.00 | 0.25 | 0.25 | 59 | 1015.0 |
| 20260906155947 | 19 | 334 | 6.4 | 6.4 | 0.00 | 0.25 | 0.25 | 61 | 1015.3 |
| 20260906155445 | 19 | 327 | 1.6 | 3.2 | 0.00 | 0.25 | 0.25 | 62 | 1015.2 |
| 20260906154942 | 18 | 314 | 3.2 | 4.8 | 0.00 | 0.25 | 0.25 | 64 | 1015.2 |
| 20260906154437 | 19 | 7 | 3.2 | 4.8 | 0.00 | 0.25 | 0.25 | 63 | 1015.5 |
| 20260906153935 | 19 | 200 | 1.6 | 4.8 | 0.00 | 0.25 | 0.25 | 65 | 1015.4 |
| 20260906153434 | 19 | 273 | 4.8 | 4.8 | 0.00 | 0.25 | 0.25 | 65 | 1015.4 |
| 20260906152930 | 19 | 290 | 1.6 | 1.6 | 0.00 | 0.25 | 0.25 | 68 | 1015.4 |
| 20260906152430 | 18 | 254 | 1.6 | 3.2 | 0.00 | 0.25 | 0.25 | 74 | 1015.6 |
| 20260906151929 | 19 | 261 | 6.4 | 9.7 | 0.00 | 0.25 | 0.25 | 67 | 1015.3 |
| 20260906151425 | 20 | 239 | 1.6 | 1.6 | 0.00 | 0.25 | 0.25 | 65 | 1015.4 |
| 20260906150920 | 19 | 281 | 4.8 | 6.4 | 0.00 | 0.25 | 0.25 | 65 | 1015.4 |
| 20260906150415 | 19 | 59 | 1.6 | 1.6 | 0.00 | 0.25 | 0.25 | 70 | 1015.5 |
| 20260906145915 | 18 | 336 | 1.6 | 3.2 | 0.00 | 0.25 | 0.25 | 61 | 1015.4 |
| 20260906145414 | 18 | 68 | 3.2 | 4.8 | 0.00 | 0.25 | 0.25 | 62 | 1015.5 |
| 20260906144909 | 18 | 318 | 1.6 | 3.2 | 0.00 | 0.25 | 0.25 | 61 | 1015.6 |
| 20260906144403 | 18 | 237 | 3.2 | 4.8 | 0.00 | 0.25 | 0.25 | 60 | 1015.8 |
| 20260906143859 | 18 | 7 | 6.4 | 6.4 | 0.00 | 0.25 | 0.25 | 61 | 1015.8 |
| 20260906143354 | 18 | 347 | 1.6 | 3.2 | 0.00 | 0.25 | 0.25 | 67 | 1015.8 |
| 20260906142850 | 18 | 92 | 3.2 | 4.8 | 0.00 | 0.25 | 0.25 | 65 | 1015.8 |
| 20260906142344 | 17 | 311 | 3.2 | 3.2 | 0.00 | 0.25 | 0.25 | 69 | 1015.7 |
| 20260906141844 | 17 | 78 | 4.8 | 4.8 | 0.00 | 0.25 | 0.25 | 69 | 1015.8 |
| 20260906141333 | 17 | 19 | 1.6 | 1.6 | 0.00 | 0.25 | 0.25 | 72 | 1015.9 |
| 20260906140832 | 17 | 287 | 1.6 | 3.2 | 0.00 | 0.25 | 0.25 | 69 | 1015.8 |
| 20260906140327 | 17 | 348 | 1.6 | 1.6 | 0.00 | 0.25 | 0.25 | 74 | 1015.9 |
| 20260906135825 | 17 | 27 | 8.0 | 11.3 | 0.00 | 0.25 | 0.25 | 73 | 1015.9 |
| 20260906135320 | 17 | 338 | 3.2 | 4.8 | 0.00 | 0.25 | 0.25 | 76 | 1015.6 |
| 20260906134815 | 17 | 308 | 1.6 | 1.6 | 0.00 | 0.25 | 0.25 | 79 | 1015.6 |
| 20260906134311 | 17 | 329 | 3.2 | 4.8 | 0.00 | 0.25 | 0.25 | 80 | 1015.4 |
| 20260906133806 | 16 | 234 | 1.6 | 3.2 | 0.00 | 0.25 | 0.25 | 78 | 1015.5 |
| 20260906133301 | 17 | 38 | 3.2 | 4.8 | 0.00 | 0.25 | 0.25 | 81 | 1015.5 |
| 20260906132757 | 16 | 316 | 0.0 | 1.6 | 0.00 | 0.25 | 0.25 | 88 | 1015.6 |
| 20260906132252 | 16 | 89 | 1.6 | 3.2 | 0.00 | 0.25 | 0.25 | 85 | 1015.6 |
| 20260906131747 | 16 | 351 | 1.6 | 3.2 | 0.00 | 0.25 | 0.25 | 89 | 1015.8 |
| 20260906131242 | 16 | 246 | 3.2 | 3.2 | 0.00 | 0.25 | 0.25 | 91 | 1015.6 |
| 20260906130738 | 16 | 283 | 4.8 | 9.7 | 0.00 | 0.25 | 0.25 | 91 | 1015.8 |
| 20260906130233 | 15 | 31 | 1.6 | 1.6 | 0.00 | 0.25 | 0.25 | 95 | 1015.6 |
| 20260906125731 | 15 | 328 | 3.2 | 4.8 | 0.00 | 0.25 | 0.25 | 95 | 1015.6 |
| 20260906125229 | 14 | 285 | 0.0 | 0.0 | 0.00 | 0.25 | 0.25 | 98 | 1015.6 |
| 20260906124724 | 14 | 309 | 1.6 | 1.6 | 0.00 | 0.25 | 0.25 | 97 | 1015.7 |
| 20260906124220 | 15 | 56 | 1.6 | 3.2 | 0.00 | 0.25 | 0.25 | 96 | 1015.8 |
| 20260906123718 | 14 | 124 | 0.0 | 1.6 | 0.00 | 0.25 | 0.25 | 97 | 1015.8 |
| 20260906123214 | 14 | 33 | 1.6 | 1.6 | 0.00 | 0.25 | 0.25 | 99 | 1015.9 |
| 20260906122713 | 14 | 318 | 0.0 | 1.6 | 0.00 | 0.25 | 0.25 | 99 | 1015.9 |
| 20260906122209 | 13 | 320 | 0.0 | 1.6 | 0.00 | 0.25 | 0.25 | 99 | 1015.9 |
| 20260906121705 | 13 | 8 | 0.0 | 1.6 | 0.00 | 0.25 | 0.25 | 99 | 1015.8 |
| 20260906121201 | 13 | 354 | 3.2 | 3.2 | 0.00 | 0.25 | 0.25 | 99 | 1015.9 |
| 20260906120656 | 13 | 310 | 0.0 | 0.0 | 0.00 | 0.25 | 0.25 | 99 | 1015.8 |
| 20260906120153 | 13 | 311 | 0.0 | 0.0 | 0.00 | 0.25 | 0.25 | 99 | 1015.9 |
| 20260906115648 | 13 | 320 | 0.0 | 0.0 | 0.00 | 0.25 | 0.25 | 99 | 1015.6 |
| 20260906115144 | 13 | 357 | 1.6 | 1.6 | 0.00 | 0.25 | 0.25 | 99 | 1015.7 |
| 20260906114642 | 13 | 335 | 0.0 | 0.0 | 0.00 | 0.25 | 0.25 | 99 | 1015.6 |
| 20260906114137 | 13 | 307 | 0.0 | 0.0 | 0.00 | 0.25 | 0.25 | 99 | 1015.8 |
| 20260906113632 | 13 | 338 | 0.0 | 0.0 | 0.00 | 0.25 | 0.25 | 99 | 1015.5 |
| 20260906113127 | 13 | 331 | 0.0 | 1.6 | 0.00 | 0.25 | 0.25 | 99 | 1015.6 |
| 20260906112626 | 13 | 291 | 0.0 | 1.6 | 0.00 | 0.25 | 0.25 | 99 | 1015.3 |
| 20260906112123 | 12 | 294 | 0.0 | 0.0 | 0.00 | 0.25 | 0.25 | 99 | 1015.3 |
| 20260906111622 | 12 | 318 | 0.0 | 0.0 | 0.00 | 0.25 | 0.25 | 99 | 1015.4 |
| 20260906111118 | 12 | 304 | 0.0 | 0.0 | 0.00 | 0.25 | 0.25 | 99 | 1015.3 |
| 20260906110618 | 12 | 298 | 0.0 | 0.0 | 0.00 | 0.25 | 0.25 | 99 | 1015.4 |
| 20260906110112 | 12 | 299 | 0.0 | 0.0 | 0.00 | 0.25 | 0.25 | 99 | 1015.2 |
| 20260906105607 | 12 | 292 | 0.0 | 0.0 | 0.00 | 0.25 | 0.25 | 99 | 1015.2 |
| 20260906105103 | 12 | 294 | 0.0 | 0.0 | 0.00 | 0.25 | 0.25 | 99 | 1015.0 |
| 20260906104602 | 12 | 303 | 0.0 | 1.6 | 0.00 | 0.25 | 0.25 | 99 | 1015.2 |
| 20260906104056 | 12 | 291 | 0.0 | 0.0 | 0.00 | 0.25 | 0.25 | 99 | 1015.2 |
| 20260906103554 | 12 | 303 | 0.0 | 0.0 | 0.00 | 0.25 | 0.25 | 99 | 1015.1 |
| 20260906103050 | 12 | 320 | 0.0 | 0.0 | 0.00 | 0.25 | 0.25 | 99 | 1015.2 |
| 20260906102549 | 12 | 316 | 0.0 | 0.0 | 0.43 | 0.25 | 0.25 | 99 | 1015.2 |
| 20260906102044 | 12 | 309 | 0.0 | 0.0 | 0.71 | 0.25 | 0.25 | 99 | 1015.3 |
| 20260906101539 | 12 | 305 | 0.0 | 1.6 | 0.71 | 0.20 | 0.20 | 99 | 1015.3 |
| 20260906101033 | 12 | 29 | 3.2 | 3.2 | 0.48 | 0.13 | 0.13 | 99 | 1015.2 |
| 20260906100529 | 12 | 320 | 0.0 | 0.0 | 0.30 | 0.08 | 0.08 | 99 | 1015.2 |
| 20260906100024 | 12 | 326 | 0.0 | 0.0 | 0.13 | 0.05 | 0.05 | 99 | 1015.1 |
| 20260906095519 | 12 | 320 | 0.0 | 0.0 | 0.00 | 0.03 | 0.03 | 99 | 1015.0 |
| 20260906095014 | 12 | 311 | 0.0 | 0.0 | 0.00 | 0.03 | 0.03 | 99 | 1015.0 |
| 20260906094513 | 12 | 304 | 0.0 | 0.0 | 0.18 | 0.03 | 0.03 | 99 | 1014.9 |
| 20260906094009 | 12 | 320 | 0.0 | 0.0 | 0.18 | 0.03 | 0.03 | 98 | 1014.9 |
| 20260906093505 | 12 | 318 | 0.0 | 0.0 | 0.00 | 0.00 | 0.00 | 98 | 1014.9 |
| 20260906093000 | 12 | 316 | 0.0 | 0.0 | 0.00 | 0.00 | 0.00 | 98 | 1015.1 |
| 20260906092500 | 12 | 324 | 0.0 | 0.0 | 0.00 | 0.00 | 0.00 | 98 | 1014.8 |
| 20260906091955 | 12 | 324 | 0.0 | 0.0 | 0.00 | 0.00 | 0.00 | 98 | 1015.0 |
| 20260906091450 | 12 | 305 | 0.0 | 0.0 | 0.00 | 0.00 | 0.00 | 98 | 1014.9 |
| 20260906090947 | 12 | 303 | 0.0 | 0.0 | 0.00 | 0.00 | 0.00 | 99 | 1014.7 |
| 20260906090442 | 12 | 301 | 0.0 | 0.0 | 0.00 | 0.00 | 0.00 | 99 | 1014.7 |
| 20260906085942 | 12 | 296 | 0.0 | 0.0 | 0.00 | 0.00 | 0.00 | 99 | 1014.7 |
| 20260906085441 | 12 | 299 | 0.0 | 0.0 | 0.00 | 0.00 | 0.00 | 99 | 1014.6 |
| 20260906084940 | 12 | 296 | 1.6 | 1.6 | 0.00 | 0.00 | 0.00 | 98 | 1014.5 |
| 20260906084435 | 12 | 306 | 0.0 | 0.0 | 0.00 | 0.00 | 0.00 | 97 | 1014.3 |
| 20260906083934 | 12 | 324 | 0.0 | 0.0 | 0.00 | 0.00 | 0.00 | 97 | 1014.4 |
| 20260906083430 | 12 | 345 | 0.0 | 0.0 | 0.00 | 0.00 | 0.00 | 97 | 1014.4 |
| 20260906082929 | 12 | 311 | 0.0 | 0.0 | 0.00 | 0.00 | 0.00 | 97 | 1014.3 |
| 20260906082425 | 12 | 308 | 0.0 | 0.0 | 0.00 | 0.00 | 0.00 | 98 | 1014.4 |
| 20260906081920 | 12 | 316 | 0.0 | 0.0 | 0.00 | 0.00 | 0.00 | 98 | 1014.3 |
| 20260906081415 | 12 | 301 | 0.0 | 0.0 | 0.00 | 0.00 | 0.00 | 98 | 1014.4 |
| 20260906080912 | 12 | 315 | 0.0 | 0.0 | 0.00 | 0.00 | 0.00 | 99 | 1014.4 |
| 20260906080408 | 12 | 307 | 0.0 | 0.0 | 0.00 | 0.00 | 0.00 | 99 | 1014.1 |
| 20260906075907 | 12 | 296 | 0.0 | 0.0 | 0.00 | 0.00 | 0.00 | 99 | 1014.4 |
| 20260906075402 | 12 | 295 | 0.0 | 0.0 | 0.00 | 0.00 | 0.00 | 99 | 1014.2 |
| 20260906074858 | 12 | 314 | 0.0 | 0.0 | 0.00 | 0.00 | 0.00 | 99 | 1014.1 |
| 20260906074357 | 11 | 140 | 1.6 | 1.6 | 0.00 | 0.00 | 0.00 | 99 | 1014.1 |
| 20260906073856 | 11 | 316 | 0.0 | 0.0 | 0.00 | 0.00 | 0.00 | 99 | 1014.3 |
| 20260906073351 | 11 | 306 | 0.0 | 0.0 | 0.00 | 0.00 | 0.00 | 99 | 1014.4 |
| 20260906072848 | 11 | 333 | 0.0 | 0.0 | 0.00 | 0.00 | 0.00 | 99 | 1014.4 |
| 20260906072343 | 11 | 305 | 0.0 | 0.0 | 0.00 | 0.00 | 0.00 | 99 | 1014.4 |
| 20260906071839 | 11 | 305 | 0.0 | 0.0 | 0.00 | 0.00 | 0.00 | 99 | 1014.4 |
| 20260906071334 | 11 | 301 | 0.0 | 0.0 | 0.00 | 0.00 | 0.00 | 99 | 1014.2 |
| 20260906070830 | 11 | 292 | 0.0 | 0.0 | 0.00 | 0.00 | 0.00 | 99 | 1014.2 |
| 20260906070325 | 11 | 307 | 0.0 | 0.0 | 0.00 | 0.00 | 0.00 | 99 | 1014.1 |
| 20260906065820 | 11 | 310 | 0.0 | 0.0 | 0.00 | 0.00 | 0.00 | 99 | 1014.2 |
| 20260906065315 | 11 | 315 | 0.0 | 0.0 | 0.00 | 0.00 | 0.00 | 99 | 1014.1 |
| 20260906064811 | 11 | 310 | 0.0 | 0.0 | 0.00 | 0.00 | 0.00 | 99 | 1014.1 |
| 20260906064307 | 11 | 313 | 0.0 | 0.0 | 0.00 | 0.00 | 0.00 | 99 | 1013.8 |
| 20260906063801 | 11 | 309 | 0.0 | 0.0 | 0.00 | 0.00 | 0.00 | 99 | 1013.8 |
| 20260906063257 | 11 | 315 | 0.0 | 0.0 | 0.00 | 0.00 | 0.00 | 99 | 1014.1 |
| 20260906062752 | 11 | 307 | 0.0 | 0.0 | 0.00 | 0.00 | 0.00 | 99 | 1014.0 |
| 20260906062251 | 11 | 307 | 0.0 | 0.0 | 0.00 | 0.00 | 0.00 | 99 | 1013.6 |
| 20260906061747 | 11 | 307 | 0.0 | 0.0 | 0.00 | 0.00 | 0.00 | 99 | 1013.9 |
| 20260906061243 | 11 | 309 | 0.0 | 0.0 | 0.00 | 0.00 | 0.00 | 99 | 1013.9 |
| 20260906060738 | 11 | 307 | 0.0 | 0.0 | 0.00 | 0.00 | 0.00 | 99 | 1013.9 |
| 20260906060236 | 11 | 306 | 0.0 | 0.0 | 0.00 | 0.00 | 0.00 | 99 | 1014.0 |
| 20260906055731 | 11 | 307 | 0.0 | 0.0 | 0.00 | 0.00 | 0.00 | 98 | 1013.9 |
| 20260906055226 | 12 | 309 | 0.0 | 0.0 | 0.00 | 0.00 | 0.00 | 98 | 1014.1 |
| 20260906054721 | 12 | 307 | 0.0 | 0.0 | 0.00 | 0.00 | 0.00 | 97 | 1014.1 |
| 20260906054216 | 12 | 306 | 0.0 | 0.0 | 0.00 | 0.00 | 0.00 | 97 | 1014.1 |
| 20260906053713 | 12 | 310 | 0.0 | 0.0 | 0.00 | 0.00 | 0.00 | 97 | 1014.1 |
| 20260906053208 | 12 | 311 | 0.0 | 0.0 | 0.00 | 0.00 | 0.00 | 97 | 1014.1 |
| 20260906052703 | 12 | 306 | 0.0 | 0.0 | 0.00 | 0.00 | 0.00 | 97 | 1013.8 |
| 20260906052159 | 12 | 309 | 0.0 | 0.0 | 0.00 | 0.00 | 0.00 | 96 | 1014.0 |
| 20260906051656 | 12 | 309 | 0.0 | 0.0 | 0.00 | 0.00 | 0.00 | 96 | 1014.1 |
| 20260906051155 | 12 | 302 | 0.0 | 0.0 | 0.00 | 0.00 | 0.00 | 96 | 1014.2 |
| 20260906050651 | 12 | 300 | 0.0 | 0.0 | 0.00 | 0.00 | 0.00 | 96 | 1014.0 |
| 20260906050146 | 12 | 309 | 0.0 | 0.0 | 0.00 | 0.00 | 0.00 | 95 | 1014.1 |
| 20260906045644 | 12 | 296 | 0.0 | 0.0 | 0.00 | 0.00 | 0.00 | 95 | 1014.1 |
| 20260906045140 | 12 | 310 | 0.0 | 0.0 | 0.00 | 0.00 | 0.00 | 96 | 1014.1 |
| 20260906044636 | 12 | 292 | 0.0 | 0.0 | 0.00 | 0.00 | 0.00 | 97 | 1014.1 |
| 20260906044131 | 11 | 308 | 0.0 | 0.0 | 0.00 | 0.00 | 0.00 | 98 | 1013.9 |
| 20260906043627 | 11 | 307 | 0.0 | 0.0 | 0.00 | 0.00 | 0.00 | 98 | 1013.9 |
| 20260906043122 | 11 | 310 | 0.0 | 0.0 | 0.00 | 0.00 | 0.00 | 98 | 1013.9 |
| 20260906042621 | 11 | 310 | 0.0 | 0.0 | 0.00 | 0.00 | 0.00 | 97 | 1013.9 |
| 20260906042115 | 11 | 301 | 0.0 | 0.0 | 0.00 | 0.00 | 0.00 | 97 | 1014.1 |
| 20260906041612 | 12 | 309 | 0.0 | 0.0 | 0.00 | 0.00 | 0.00 | 96 | 1014.1 |
| 20260906041106 | 12 | 309 | 0.0 | 0.0 | 0.00 | 0.00 | 0.00 | 95 | 1014.0 |
| 20260906040602 | 12 | 309 | 0.0 | 0.0 | 0.00 | 0.00 | 0.00 | 95 | 1014.1 |
| 20260906040057 | 12 | 309 | 0.0 | 0.0 | 0.00 | 0.00 | 0.00 | 94 | 1014.0 |
| 20260906035552 | 12 | 313 | 0.0 | 0.0 | 0.00 | 0.05 | 0.05 | 93 | 1013.9 |
| 20260906035048 | 13 | 317 | 0.0 | 0.0 | 0.00 | 0.05 | 0.05 | 92 | 1013.9 |
| 20260906034548 | 13 | 307 | 0.0 | 0.0 | 0.00 | 0.05 | 0.05 | 90 | 1014.0 |
| 20260906034037 | 13 | 299 | 0.0 | 0.0 | 0.00 | 0.05 | 0.05 | 89 | 1014.0 |
| 20260906033532 | 14 | 296 | 0.0 | 0.0 | 0.00 | 0.05 | 0.05 | 88 | 1013.8 |
| 20260906033028 | 14 | 311 | 0.0 | 0.0 | 0.00 | 0.05 | 0.05 | 87 | 1013.9 |
| 20260906032524 | 15 | 349 | 0.0 | 0.0 | 0.00 | 0.05 | 0.05 | 86 | 1013.9 |
| 20260906032024 | 15 | 224 | 0.0 | 0.0 | 0.00 | 0.05 | 0.05 | 86 | 1013.7 |
| 20260906031520 | 15 | 300 | 0.0 | 0.0 | 0.00 | 0.05 | 0.05 | 85 | 1013.7 |
| 20260906031010 | 15 | 349 | 0.0 | 0.0 | 0.00 | 0.05 | 0.05 | 84 | 1013.8 |
| 20260906030509 | 15 | 343 | 0.0 | 0.0 | 0.00 | 0.05 | 0.05 | 83 | 1013.8 |
| 20260906030009 | 16 | 321 | 0.0 | 0.0 | 0.00 | 0.05 | 0.05 | 83 | 1013.8 |
| 20260906025508 | 16 | 340 | 0.0 | 1.6 | 0.00 | 0.05 | 0.05 | 82 | 1013.6 |
| 20260906025006 | 16 | 314 | 0.0 | 1.6 | 0.00 | 0.05 | 0.05 | 82 | 1013.4 |
| 20260906024501 | 16 | 14 | 0.0 | 1.6 | 0.00 | 0.05 | 0.05 | 83 | 1013.9 |
| 20260906023956 | 16 | 14 | 1.6 | 1.6 | 0.00 | 0.05 | 0.05 | 82 | 1013.5 |
| 20260906023452 | 16 | 349 | 0.0 | 1.6 | 0.00 | 0.05 | 0.05 | 82 | 1013.7 |
| 20260906022947 | 16 | 0 | 3.2 | 3.2 | 0.00 | 0.05 | 0.05 | 83 | 1013.5 |
| 20260906022443 | 16 | 317 | 0.0 | 0.0 | 0.00 | 0.05 | 0.05 | 84 | 1013.5 |
| 20260906021937 | 15 | 8 | 1.6 | 1.6 | 0.00 | 0.05 | 0.05 | 85 | 1013.5 |
| 20260906021432 | 15 | 336 | 0.0 | 0.0 | 0.00 | 0.05 | 0.05 | 85 | 1013.5 |
| 20260906020926 | 15 | 310 | 0.0 | 0.0 | 0.00 | 0.05 | 0.05 | 86 | 1013.4 |
| 20260906020421 | 15 | 317 | 0.0 | 0.0 | 0.00 | 0.05 | 0.05 | 87 | 1013.6 |
| 20260906015915 | 15 | 348 | 0.0 | 0.0 | 0.00 | 0.05 | 0.05 | 87 | 1013.2 |
| 20260906015415 | 15 | 346 | 0.0 | 0.0 | 0.00 | 0.05 | 0.05 | 86 | 1013.5 |
| 20260906014909 | 15 | 27 | 1.6 | 1.6 | 0.00 | 0.05 | 0.05 | 87 | 1013.5 |
| 20260906014408 | 15 | 306 | 1.6 | 3.2 | 0.00 | 0.05 | 0.05 | 89 | 1013.4 |
| 20260906013905 | 15 | 322 | 0.0 | 0.0 | 0.00 | 0.05 | 0.05 | 91 | 1013.7 |
| 20260906013400 | 14 | 350 | 3.2 | 3.2 | 0.00 | 0.05 | 0.05 | 91 | 1013.4 |
| 20260906012855 | 15 | 323 | 0.0 | 0.0 | 0.00 | 0.05 | 0.05 | 92 | 1013.6 |
| 20260906012350 | 15 | 327 | 0.0 | 0.0 | 0.00 | 0.05 | 0.05 | 91 | 1013.7 |
| 20260906011845 | 14 | 328 | 0.0 | 0.0 | 0.00 | 0.05 | 0.05 | 92 | 1013.4 |
| 20260906011339 | 13 | 329 | 0.0 | 0.0 | 0.00 | 0.05 | 0.05 | 93 | 1013.3 |
| 20260906010835 | 13 | 316 | 0.0 | 0.0 | 0.00 | 0.05 | 0.05 | 96 | 1013.3 |
| 20260906010331 | 13 | 323 | 0.0 | 0.0 | 0.00 | 0.05 | 0.05 | 96 | 1013.3 |
| 20260906005826 | 13 | 320 | 0.0 | 0.0 | 0.00 | 0.05 | 0.05 | 95 | 1013.5 |
| 20260906005325 | 13 | 320 | 0.0 | 0.0 | 0.00 | 0.05 | 0.05 | 94 | 1013.5 |
| 20260906004819 | 14 | 320 | 0.0 | 0.0 | 0.00 | 0.05 | 0.05 | 94 | 1013.4 |
| 20260906004319 | 14 | 321 | 0.0 | 0.0 | 0.00 | 0.05 | 0.05 | 93 | 1013.3 |
| 20260906003814 | 15 | 322 | 0.0 | 0.0 | 0.00 | 0.05 | 0.05 | 92 | 1013.1 |
| 20260906003309 | 15 | 321 | 0.0 | 0.0 | 0.00 | 0.05 | 0.05 | 91 | 1013.1 |
| 20260906002805 | 15 | 322 | 0.0 | 0.0 | 0.00 | 0.05 | 0.05 | 90 | 1013.0 |
| 20260906002306 | 15 | 322 | 0.0 | 0.0 | 0.00 | 0.05 | 0.05 | 89 | 1013.1 |
| 20260906001800 | 16 | 322 | 0.0 | 0.0 | 0.00 | 0.05 | 0.05 | 88 | 1013.2 |
| 20260906001255 | 16 | 322 | 0.0 | 0.0 | 0.00 | 0.05 | 0.05 | 87 | 1013.2 |
| 20260906000749 | 16 | 322 | 0.0 | 0.0 | 0.00 | 0.05 | 0.05 | 86 | 1013.1 |
| 20260906000244 | 16 | 322 | 0.0 | 0.0 | 0.00 | 0.05 | 0.05 | 86 | 1013.0 |
| 20260905235738 | 16 | 324 | 0.0 | 0.0 | 0.00 | 0.05 | 0.05 | 85 | 1013.0 |
| 20260905235233 | 16 | 326 | 0.0 | 0.0 | 0.00 | 0.05 | 0.05 | 85 | 1013.0 |
| 20260905234729 | 16 | 320 | 0.0 | 0.0 | 0.00 | 0.05 | 0.05 | 86 | 1012.7 |
| 20260905234224 | 17 | 320 | 0.0 | 0.0 | 0.00 | 0.05 | 0.05 | 84 | 1012.8 |
| 20260905233719 | 17 | 320 | 0.0 | 0.0 | 0.00 | 0.05 | 0.05 | 83 | 1012.8 |
| 20260905233218 | 17 | 328 | 0.0 | 0.0 | 0.00 | 0.05 | 0.05 | 83 | 1012.9 |
| 20260905232713 | 17 | 329 | 0.0 | 0.0 | 0.00 | 0.05 | 0.05 | 81 | 1012.9 |
| 20260905232209 | 17 | 329 | 0.0 | 0.0 | 0.00 | 0.05 | 0.05 | 81 | 1012.7 |
| 20260905231705 | 17 | 311 | 0.0 | 0.0 | 0.00 | 0.05 | 0.05 | 82 | 1012.5 |
| 20260905231200 | 17 | 311 | 0.0 | 0.0 | 0.00 | 0.05 | 0.05 | 80 | 1012.7 |
| 20260905230656 | 17 | 311 | 0.0 | 0.0 | 0.00 | 0.05 | 0.05 | 79 | 1012.3 |
| 20260905230154 | 17 | 311 | 0.0 | 0.0 | 0.00 | 0.05 | 0.05 | 78 | 1012.4 |
| 20260905225653 | 17 | 347 | 1.6 | 1.6 | 0.00 | 0.05 | 0.05 | 78 | 1012.3 |
| 20260905225148 | 17 | 298 | 0.0 | 0.0 | 0.00 | 0.05 | 0.05 | 81 | 1012.4 |
| 20260905224648 | 17 | 287 | 0.0 | 0.0 | 0.00 | 0.05 | 0.05 | 80 | 1012.6 |
| 20260905224142 | 18 | 292 | 0.0 | 0.0 | 0.00 | 0.05 | 0.05 | 78 | 1012.4 |
| 20260905223639 | 18 | 294 | 0.0 | 0.0 | 0.00 | 0.05 | 0.05 | 75 | 1012.3 |
| 20260905223136 | 19 | 300 | 0.0 | 0.0 | 0.00 | 0.05 | 0.05 | 74 | 1012.2 |
| 20260905222631 | 20 | 294 | 0.0 | 0.0 | 0.00 | 0.05 | 0.05 | 73 | 1012.2 |
| 20260905222126 | 20 | 323 | 0.0 | 0.0 | 0.00 | 0.05 | 0.05 | 73 | 1012.2 |
| 20260905221621 | 20 | 93 | 3.2 | 3.2 | 0.00 | 0.05 | 0.05 | 70 | 1012.2 |
| 20260905221118 | 20 | 298 | 0.0 | 0.0 | 0.00 | 0.05 | 0.05 | 71 | 1012.1 |
| 20260905220613 | 20 | 312 | 0.0 | 0.0 | 0.00 | 0.05 | 0.05 | 71 | 1012.0 |
| 20260905220109 | 20 | 317 | 0.0 | 0.0 | 0.00 | 0.05 | 0.05 | 69 | 1011.7 |
| 20260905215609 | 20 | 316 | 0.0 | 0.0 | 0.00 | 0.05 | 0.05 | 68 | 1011.7 |
| 20260905215105 | 20 | 3 | 1.6 | 1.6 | 0.00 | 0.05 | 0.05 | 68 | 1011.9 |
| 20260905214601 | 20 | 8 | 1.6 | 1.6 | 0.00 | 0.05 | 0.05 | 67 | 1011.9 |
| 20260905214100 | 20 | 325 | 1.6 | 1.6 | 0.00 | 0.05 | 0.05 | 67 | 1011.9 |
| 20260905213556 | 20 | 338 | 1.6 | 1.6 | 0.00 | 0.05 | 0.05 | 66 | 1011.7 |
| 20260905213051 | 20 | 10 | 6.4 | 9.7 | 0.00 | 0.05 | 0.05 | 67 | 1011.7 |
| 20260905212551 | 20 | 346 | 1.6 | 1.6 | 0.00 | 0.05 | 0.05 | 69 | 1011.6 |
| 20260905212045 | 20 | 306 | 0.0 | 1.6 | 0.00 | 0.05 | 0.05 | 69 | 1011.6 |
| 20260905211540 | 20 | 341 | 1.6 | 1.6 | 0.00 | 0.05 | 0.05 | 68 | 1011.6 |
| 20260905211036 | 21 | 18 | 9.7 | 12.9 | 0.00 | 0.05 | 0.05 | 66 | 1011.5 |
| 20260905210531 | 22 | 67 | 4.8 | 4.8 | 0.00 | 0.05 | 0.05 | 64 | 1011.2 |
| 20260905210026 | 22 | 243 | 1.6 | 3.2 | 0.00 | 0.05 | 0.05 | 65 | 1011.2 |
| 20260905205526 | 22 | 357 | 3.2 | 4.8 | 0.00 | 0.05 | 0.05 | 65 | 1011.3 |
| 20260905205025 | 21 | 349 | 1.6 | 3.2 | 0.00 | 0.05 | 0.05 | 66 | 1011.2 |
| 20260905204520 | 21 | 358 | 3.2 | 3.2 | 0.00 | 0.05 | 0.05 | 67 | 1011.2 |
| 20260905204015 | 21 | 59 | 0.0 | 1.6 | 0.00 | 0.05 | 0.05 | 68 | 1011.4 |
| 20260905203510 | 21 | 51 | 6.4 | 9.7 | 0.00 | 0.05 | 0.05 | 68 | 1011.3 |
| 20260905203005 | 21 | 44 | 3.2 | 6.4 | 0.00 | 0.05 | 0.05 | 69 | 1011.1 |
| 20260905202500 | 21 | 300 | 3.2 | 4.8 | 0.00 | 0.05 | 0.05 | 70 | 1011.1 |
| 20260905201955 | 21 | 344 | 3.2 | 6.4 | 0.00 | 0.05 | 0.05 | 70 | 1011.2 |
| 20260905201451 | 21 | 25 | 1.6 | 3.2 | 0.00 | 0.05 | 0.05 | 71 | 1011.3 |